Location: La Fredeussais
(48.1780°N, 1.3980°W)
Time: 17:34:44
(UTC+00:00)

USA 305 - Pass Details

Date: 09 May 2021
Orbit: 567 x 573 km, 54.0° (Epoch: 07 May)

Event Time Altitude Azimuth Distance (km) Brightness Sun altitude
Rises 20:17:37 0° 290° (WNW) 2,772 8.1 -7.4°
Reaches altitude 10° 20:19:59 10° 298° (WNW) 1,874 7.2 -7.7°
Maximum altitude 20:24:01 40° 9° (N) 854 4.1 -8.3°
Drops below altitude 10° 20:28:03 10° 80° (E) 1,875 5.2 -8.8°
Enters shadow 20:29:31 - 85° (E) 2,427 5.7 -9.0°
